7 * 24
多渠道服务支持
STARLINK-36151是美国SpaceX星链互联网星座的一员,发射于2025年12月15日,属于大规模低轨卫星组网计划的组成部分。星链系统旨在为全球提供高速低延迟宽带互联网覆盖,尤其服务偏远地区和移动场景。该卫星升空后将进入预定轨道,参与星座运行,增强星座服务容量,延续SpaceX持续拓展星链规模的发展节奏。 (注:目前未公开该卫星更多技术参数与特殊任务信息,以上为基于星链星座整体背景的常规介绍)
美国
(US)
| 数据来源 | 国际轨道数据 |
| 星历时间: | 2026-03-14T06:00:02+0800 8小时前 查看轨道信息 |
| 半长轴: | 6861.167km |
| 偏心率: | 0.0001458 |
| 轨道倾角: | 43.000° |
| 近地点辐角 | 255.165° |
| 升交点赤经 | 144.944° |
| 平近点角 | 146.371° |
| 近地点: | 482.029km |
| 远地点: | 484.031km |
| 周期: | 94.266分钟 |
| 每日圈数: | 15.275865 |